Location: Unspecified
(0.0000°N, 0.0000°E)
Time: 00:54:32
(UTC+00:00)

Courier 1B - All Passes

Search period start: 26 May 2019 00:00
Search period end: 05 June 2019 00:00
Orbit: 963 x 1209 km, 28.3° (Epoch: 25 May)

Date Brightness Start Highest point End Pass type
(mag) Time Alt. Az. Time Alt. Az. Time Alt. Az.
26 May - 00:30:46 10° SW 00:38:08 55° SSE 00:45:02 10° ENE night (unlit)
26 May - 02:25:31 10° W 02:32:22 44° NNW 02:38:49 10° NE visible
26 May - 04:24:08 10° NW 04:26:58 13° NNW 04:29:45 10° N visible
26 May - 10:12:51 10° N 10:15:30 12° NNE 10:18:11 10° NE daylight
26 May - 12:03:43 10° NW 12:10:04 44° NNE 12:16:47 10° E daylight
26 May - 13:57:29 10° WNW 14:04:15 54° SSW 14:11:29 10° SE daylight
26 May - 15:54:26 10° WSW 15:59:07 18° SSW 16:03:59 10° SSE daylight
26 May - 21:45:08 10° S 21:48:56 14° SSE 21:52:41 10° SE night (unlit)
26 May - 23:37:01 10° SW 23:44:09 40° SSE 23:50:54 10° E night (unlit)
27 May - 01:31:09 10° WSW 01:38:31 63° NNW 01:45:24 10° NE visible
27 May - 03:28:20 10° WNW 03:32:55 18° NNW 03:37:22 10° NNE visible
27 May - 11:10:29 10° NNW 11:16:14 31° NNE 11:22:14 10° E daylight
27 May - 13:03:35 10° WNW 13:10:22 74° SSW 13:17:38 10° SE daylight
27 May - 14:59:30 10° WSW 15:04:57 23° SSW 15:10:40 10° SSE daylight
27 May - 20:52:44 10° S 20:54:32 11° SSE 20:56:20 10° SSE visible
27 May - 22:43:24 10° SSW 22:50:05 31° SSE 22:56:30 10° E night (unlit)
28 May - 00:36:59 10° WSW 00:44:38 86° NNW 00:51:48 10° ENE night (unlit)
28 May - 02:33:09 10° W 02:38:57 25° NNW 02:44:29 10° NNE visible
28 May - 10:17:26 10° NNW 10:22:22 22° NNE 10:27:25 10° ENE daylight
28 May - 12:09:53 10° WNW 12:16:33 81° NNE 12:23:39 10° ESE daylight
28 May - 14:04:56 10° W 14:10:54 30° SSW 14:17:12 10° SSE daylight
28 May - 16:05:06 10° SSW 16:06:17 10° SSW 16:07:30 10° S daylight
28 May - 21:49:57 10° SSW 21:55:56 23° SSE 22:01:46 10° ESE night (unlit)
28 May - 23:42:58 10° SW 23:50:41 71° SSE 23:57:59 10° ENE night (unlit)
29 May - 01:38:19 10° W 01:45:00 35° NNW 01:51:20 10° NE visible
29 May - 03:38:59 10° NNW 03:39:54 10° NNW 03:40:50 10° NNW visible
29 May - 09:24:39 10° N 09:28:25 16° NNE 09:32:14 10° ENE daylight
29 May - 11:16:22 10° NW 11:22:47 57° NNE 11:29:32 10° ESE daylight
29 May - 13:10:39 10° W 13:16:56 40° SSW 13:23:37 10° SE daylight
29 May - 15:08:41 10° SW 15:11:58 13° SSW 15:15:21 10° S daylight
29 May - 20:56:40 10° SSW 21:01:42 18° SSE 21:06:39 10° ESE visible
29 May - 22:49:06 10° SW 22:56:42 53° SSE 23:03:57 10° ENE night (unlit)
30 May - 00:43:45 10° WSW 00:51:05 49° NNW 00:58:00 10° NE night (unlit)
30 May - 02:41:55 10° WNW 02:45:45 15° NNW 02:49:28 10° N visible
30 May - 08:32:34 10° N 08:34:24 11° NNE 08:36:13 10° NE daylight
30 May - 10:22:59 10° NW 10:29:00 40° NNE 10:35:15 10° E daylight
30 May - 12:16:36 10° WNW 12:23:04 56° SSW 12:29:56 10° SE daylight
30 May - 14:13:22 10° WSW 14:17:46 17° SSW 14:22:20 10° SSE daylight
30 May - 20:03:44 10° S 20:07:22 14° SSE 20:11:01 10° SE visible
30 May - 21:55:24 10° SW 22:02:39 39° SSE 22:09:41 10° E night (unlit)
30 May - 23:49:24 10° WSW 23:57:08 68° NNW 00:04:27 10° NE night (unlit)
31 May - 01:46:20 10° WNW 01:51:39 21° NNW 01:56:47 10° NNE visible
31 May - 09:29:45 10° NNW 09:35:12 28° NNE 09:40:44 10° E daylight
31 May - 11:22:45 10° WNW 11:29:17 78° SSW 11:36:09 10° SE daylight
31 May - 13:18:31 10° WSW 13:23:41 23° SSW 13:29:05 10° SSE daylight
31 May - 19:12:01 10° S 19:12:57 10° SSE 19:13:54 10° SSE visible
31 May - 21:01:52 10° SSW 21:08:32 30° SSE 21:15:07 10° E visible
31 May - 22:55:16 10° WSW 23:03:10 89° SSE 23:10:44 10° ENE night (unlit)
01 Jun - 00:51:14 10° W 00:57:37 29° NNW 01:03:44 10° NNE night (unlit)
01 Jun - 08:36:42 10° NNW 08:41:20 20° NNE 08:45:59 10° ENE daylight
01 Jun - 10:29:04 10° NW 10:35:32 75° NNE 10:42:14 10° ESE daylight
01 Jun - 12:24:00 10° W 12:29:43 30° SSW 12:35:42 10° SSE daylight
01 Jun - 20:08:31 10° SSW 20:14:22 22° SSE 20:20:11 10° ESE visible
01 Jun - 22:01:19 10° SW 22:09:10 67° SSE 22:16:47 10° ENE night (unlit)
01 Jun - 23:56:28 10° W 00:03:36 39° NNW 00:10:27 10° NE night (unlit)
02 Jun - 01:55:49 10° NW 01:58:35 12° NNW 02:01:18 10° N visible
02 Jun - 07:43:54 10° N 07:47:23 15° NNE 07:50:50 10° ENE daylight
02 Jun - 09:35:32 10° NW 09:41:48 53° NNE 09:48:11 10° ESE daylight
02 Jun - 11:29:45 10° W 11:35:51 42° SSW 11:42:12 10° SE daylight
02 Jun - 13:27:45 10° SW 13:30:41 13° SSW 13:33:41 10° S daylight
02 Jun - 19:15:25 10° SSW 19:20:07 17° SSE 19:24:51 10° ESE visible
02 Jun - 21:07:33 10° SW 21:15:08 50° SSE 21:22:37 10° ENE visible
02 Jun - 23:01:59 10° WSW 23:09:36 53° NNW 23:16:58 10° NE night (unlit)
03 Jun - 00:59:42 10° WNW 01:04:23 17° NNW 01:08:55 10° NNE visible
03 Jun - 06:51:55 10° N 06:53:18 11° NNE 06:54:41 10° NNE daylight
03 Jun - 08:42:08 10° NW 08:48:03 37° NNE 08:53:59 10° E daylight
03 Jun - 10:35:43 10° WNW 10:42:04 58° SSW 10:48:37 10° SE daylight
03 Jun - 12:32:25 10° WSW 12:36:34 17° SSW 12:40:50 10° SSE daylight
03 Jun - 18:22:46 10° S 18:25:48 12° SSE 18:28:52 10° SE visible
03 Jun - 20:13:57 10° SW 20:21:03 37° SSE 20:28:10 10° E visible
03 Jun - 22:07:43 10° WSW 22:15:35 73° NNW 22:23:17 10° NE night (unlit)
04 Jun - 00:04:19 10° WNW 00:10:14 23° NNW 00:15:58 10° NNE night (unlit)
04 Jun - 07:48:50 10° NNW 07:54:13 27° NNE 07:59:33 10° E daylight
04 Jun - 09:41:51 10° WNW 09:48:19 83° SSW 09:54:54 10° ESE daylight
04 Jun - 11:37:34 10° WSW 11:42:34 23° SSW 11:47:43 10° SSE daylight
04 Jun - 19:20:33 10° SSW 19:26:57 28° SSE 19:33:26 10° E visible
04 Jun - 21:13:41 10° WSW 21:21:35 85° SSE 21:29:25 10° ENE visible
04 Jun - 23:09:21 10° W 23:16:08 31° NNW 23:22:45 10° NNE night (unlit)
